When you browse on this site, cookies collect data to enhance your experience and personalize the content and advertising you see.
Visit our Privacy Policy to learn more. By continuing to use the site, you agree to this use of cookies and data.
  • In France
  • List of Countries
  • For 7 days
  • Water Temperature
  • Satellite Maps
  • Weather Map
  • Weather Widgets
  • user-avatar
    Login

    Hourly Weather Melbourne

    Today, 23 January, Wednesday

    Time Temperature Precipitation Wind Pressure Humidity
    00:00 +22°C° 0 mm 1 mps 758 mmHg 66%
    01:00 +21°C° 0 mm 2 mps 758 mmHg 68%
    02:00 +20°C° 0 mm 2 mps 758 mmHg 72%
    03:00 +19°C° 0 mm 2 mps 758 mmHg 76%
    04:00 +19°C° 0 mm 2 mps 758 mmHg 84%
    05:00 +19°C° 0.1 mm 2 mps 759 mmHg 84%
    06:00 +20°C° 0.1 mm 3 mps 759 mmHg 83%
    07:00 +20°C° 0.1 mm 3 mps 759 mmHg 83%
    08:00 +21°C° 0 mm 3 mps 759 mmHg 78%
    09:00 +22°C° 0 mm 3 mps 759 mmHg 73%
    10:00 +24°C° 0 mm 3 mps 760 mmHg 65%
    11:00 +26°C° 0 mm 3 mps 760 mmHg 58%
    12:00 +27°C° 0 mm 4 mps 759 mmHg 52%
    13:00 +29°C° 0 mm 4 mps 759 mmHg 46%
    14:00 +28°C° 0 mm 5 mps 759 mmHg 47%
    15:00 +28°C° 0 mm 5 mps 759 mmHg 48%
    16:00 +28°C° 0 mm 5 mps 759 mmHg 49%
    17:00 +27°C° 0 mm 5 mps 759 mmHg 54%
    18:00 +25°C° 0 mm 4 mps 759 mmHg 59%
    19:00 +23°C° 0 mm 4 mps 759 mmHg 64%
    20:00 +22°C° 0 mm 4 mps 760 mmHg 69%
    21:00 +21°C° 0 mm 3 mps 760 mmHg 74%
    22:00 +20°C° 0 mm 3 mps 760 mmHg 79%
    23:00 +19°C° 0 mm 2 mps 760 mmHg 82%

    Tomorrow, 24 January, Thursday

    Time Temperature Precipitation Wind Pressure Humidity
    00:00 +19°C° 0 mm 2 mps 760 mmHg 85%
    01:00 +20°C° 0 mm 1 mps 759 mmHg 87%
    02:00 +20°C° 0 mm 1 mps 759 mmHg 88%
    03:00 +19°C° 0 mm 1 mps 759 mmHg 90%
    04:00 +19°C° 0 mm 1 mps 759 mmHg 91%
    05:00 +20°C° 0 mm 1 mps 759 mmHg 86%
    06:00 +21°C° 0 mm 1 mps 759 mmHg 82%
    07:00 +21°C° 0 mm 1 mps 759 mmHg 78%
    08:00 +25°C° 0 mm 1 mps 759 mmHg 64%
    09:00 +28°C° 0 mm 1 mps 758 mmHg 49%
    10:00 +32°C° 0 mm 1 mps 758 mmHg 35%
    11:00 +35°C° 0 mm 1 mps 758 mmHg 30%
    12:00 +39°C° 0 mm 1 mps 757 mmHg 25%
    13:00 +42°C° 0 mm 1 mps 756 mmHg 19%
    14:00 +42°C° 0 mm 1 mps 756 mmHg 18%
    15:00 +43°C° 0 mm 2 mps 755 mmHg 17%
    16:00 +45°C° 0 mm 2 mps 754 mmHg 15%
    17:00 +42°C° 0 mm 2 mps 754 mmHg 18%
    18:00 +41°C° 0 mm 2 mps 754 mmHg 20%
    19:00 +40°C° 0 mm 2 mps 754 mmHg 23%
    20:00 +38°C° 0 mm 2 mps 754 mmHg 26%
    21:00 +36°C° 0 mm 3 mps 754 mmHg 29%
    22:00 +34°C° 0 mm 3 mps 754 mmHg 32%
    23:00 +34°C° 0 mm 3 mps 754 mmHg 32%

    Day after tomorrow, 25 January, Friday

    Time Temperature Precipitation Wind Pressure Humidity
    00:00 +34°C° 0 mm 3 mps 753 mmHg 32%
    01:00 +34°C° 0 mm 3 mps 753 mmHg 32%
    02:00 +34°C° 0 mm 5 mps 752 mmHg 31%
    03:00 +34°C° 0 mm 6 mps 752 mmHg 31%
    04:00 +34°C° 0 mm 7 mps 751 mmHg 31%
    05:00 +34°C° 0 mm 7 mps 752 mmHg 33%
    06:00 +35°C° 0 mm 8 mps 752 mmHg 36%
    07:00 +35°C° 0 mm 8 mps 752 mmHg 38%
    08:00 +38°C° 0 mm 8 mps 752 mmHg 34%
    09:00 +41°C° 0 mm 8 mps 752 mmHg 29%
    10:00 +44°C° 0 mm 8 mps 752 mmHg 24%
    11:00 +46°C° 0 mm 8 mps 752 mmHg 21%
    12:00 +49°C° 0 mm 7 mps 751 mmHg 17%
    13:00 +51°C° 0 mm 6 mps 751 mmHg 13%
    14:00 +45°C° 0 mm 6 mps 751 mmHg 23%
    15:00 +39°C° 0 mm 6 mps 751 mmHg 33%
    16:00 +34°C° 0 mm 6 mps 751 mmHg 43%
    17:00 +32°C° 0 mm 5 mps 751 mmHg 47%
    18:00 +29°C° 0 mm 5 mps 752 mmHg 52%
    19:00 +27°C° 0 mm 4 mps 753 mmHg 57%
    20:00 +26°C° 0 mm 4 mps 754 mmHg 60%
    21:00 +25°C° 0 mm 4 mps 755 mmHg 64%
    22:00 +24°C° 0 mm 3 mps 755 mmHg 67%
    23:00 +24°C° 0 mm 3 mps 755 mmHg 68%

    26 January, Saturday

    Time Temperature Precipitation Wind Pressure Humidity
    00:00 +23°C° 0 mm 2 mps 755 mmHg 69%
    01:00 +23°C° 0 mm 2 mps 755 mmHg 70%
    02:00 +23°C° 0 mm 2 mps 755 mmHg 72%
    03:00 +21°C° 0 mm 2 mps 755 mmHg 73%
    04:00 +21°C° 0 mm 2 mps 755 mmHg 74%
    05:00 +21°C° 0 mm 2 mps 755 mmHg 75%
    06:00 +21°C° 0 mm 2 mps 755 mmHg 75%
    07:00 +21°C° 0 mm 2 mps 755 mmHg 76%
    08:00 +23°C° 0 mm 2 mps 755 mmHg 70%
    09:00 +24°C° 0 mm 2 mps 755 mmHg 64%
    10:00 +25°C° 0 mm 2 mps 755 mmHg 59%
    11:00 +27°C° 0 mm 2 mps 754 mmHg 53%
    12:00 +29°C° 0 mm 3 mps 754 mmHg 47%
    13:00 +31°C° 0 mm 3 mps 753 mmHg 41%
    14:00 +31°C° 0 mm 3 mps 753 mmHg 39%
    15:00 +33°C° 0 mm 4 mps 752 mmHg 38%
    16:00 +33°C° 0 mm 4 mps 752 mmHg 36%
    17:00 +30°C° 0 mm 4 mps 752 mmHg 44%
    18:00 +27°C° 0 mm 4 mps 752 mmHg 52%
    19:00 +25°C° 0 mm 5 mps 752 mmHg 60%
    20:00 +22°C° 0 mm 4 mps 753 mmHg 64%
    21:00 +21°C° 0 mm 4 mps 754 mmHg 68%
    22:00 +19°C° 0 mm 4 mps 755 mmHg 72%
    23:00 +19°C° 0 mm 3 mps 755 mmHg 71%

    27 January, Sunday

    Time Temperature Precipitation Wind Pressure Humidity
    00:00 +19°C° 0 mm 3 mps 755 mmHg 71%
    01:00 +19°C° 0 mm 2 mps 755 mmHg 70%
    02:00 +19°C° 0 mm 2 mps 755 mmHg 71%
    03:00 +18°C° 0 mm 2 mps 755 mmHg 72%
    04:00 +18°C° 0 mm 2 mps 755 mmHg 73%
    05:00 +18°C° 0 mm 2 mps 756 mmHg 70%
    06:00 +18°C° 0 mm 2 mps 756 mmHg 68%
    07:00 +19°C° 0 mm 2 mps 757 mmHg 65%
    08:00 +20°C° 0 mm 2 mps 757 mmHg 61%
    09:00 +21°C° 0 mm 2 mps 757 mmHg 56%
    10:00 +23°C° 0 mm 2 mps 757 mmHg 52%
    11:00 +24°C° 0 mm 2 mps 757 mmHg 46%
    12:00 +25°C° 0 mm 2 mps 757 mmHg 40%
    13:00 +27°C° 0 mm 2 mps 757 mmHg 34%
    14:00 +27°C° 0 mm 3 mps 757 mmHg 33%
    15:00 +28°C° 0 mm 4 mps 756 mmHg 32%
    16:00 +29°C° 0 mm 4 mps 756 mmHg 32%
    17:00 +27°C° 0 mm 4 mps 757 mmHg 39%
    18:00 +25°C° 0 mm 5 mps 757 mmHg 47%
    19:00 +22°C° 0 mm 5 mps 758 mmHg 54%
    20:00 +21°C° 0 mm 4 mps 758 mmHg 58%
    21:00 +20°C° 0 mm 4 mps 759 mmHg 62%
    22:00 +19°C° 0 mm 3 mps 760 mmHg 66%
    23:00 +19°C° 0 mm 3 mps 760 mmHg 68%

    28 January, Monday

    Time Temperature Precipitation Wind Pressure Humidity
    00:00 +18°C° 0 mm 2 mps 760 mmHg 70%
    01:00 +18°C° 0 mm 1 mps 760 mmHg 72%
    02:00 +18°C° 0 mm 1 mps 759 mmHg 73%
    03:00 +18°C° 0 mm 1 mps 759 mmHg 74%
    04:00 +15°C° 0 mm 0 mps 759 mmHg 75%
    05:00 +16°C° 0 mm 0 mps 759 mmHg 72%
    06:00 +17°C° 0 mm 0 mps 759 mmHg 70%
    07:00 +17°C° 0 mm 0 mps 760 mmHg 67%
    08:00 +20°C° 0 mm 0 mps 759 mmHg 58%
    09:00 +23°C° 0 mm 0 mps 759 mmHg 48%
    10:00 +25°C° 0 mm 0 mps 759 mmHg 39%
    11:00 +29°C° 0 mm 1 mps 759 mmHg 34%
    12:00 +31°C° 0 mm 1 mps 758 mmHg 29%
    13:00 +34°C° 0 mm 2 mps 758 mmHg 23%
    14:00 +34°C° 0 mm 3 mps 758 mmHg 23%
    15:00 +34°C° 0 mm 4 mps 757 mmHg 23%
    16:00 +35°C° 0 mm 4 mps 757 mmHg 23%
    17:00 +32°C° 0 mm 5 mps 757 mmHg 31%
    18:00 +28°C° 0 mm 5 mps 758 mmHg 40%
    19:00 +26°C° 0 mm 5 mps 758 mmHg 48%
    20:00 +23°C° 0 mm 4 mps 759 mmHg 54%
    21:00 +22°C° 0 mm 4 mps 759 mmHg 60%
    22:00 +20°C° 0 mm 3 mps 760 mmHg 66%
    23:00 +20°C° 0 mm 3 mps 759 mmHg 70%
    Show more